Flag for US Virgin Islands Weather past 2 weeks in Charlotte Amalie, US Virgin Islands

84 °F

Light rain. Passing clouds.

Feels Like: 92 °F
Forecast: 84 / 91 °F
Wind: 9 mph from East

Location: Cyril E. King International Airport

Current Time: Oct 9, 2015 at 9:35:25 PM

Latest Report: Oct 9, 2015 at 8:53 PM

Visibility: 10 mi

Pressure: 29.99 "Hg

Humidity: 74%

Dew point: 75 °F

Location of Charlotte AmalieLocation

Historic Weather in Charlotte Amalie — Graph


Charlotte Amalie temperature yesterday

Maximum temperature yesterday: 90 °F (at 11:53 AM)
Minimum temperature yesterday: 77 °F (at 3:53 PM)
Average temperature yesterday: 83 °F

Past Weeks' High & Low Weather Summary

High90 °F (Oct 8, 11:53 AM)100% (Oct 3, 11:17 AM)30.04 "Hg (Oct 3, 11:17 AM)
Low75 °F (Oct 3, 9:53 AM)54% (Oct 8, 11:53 AM)29.74 "Hg (Oct 1, 3:53 PM)
Average84 °F75%29.90 "Hg
* Reported Sep 24 7:53 PM — Oct 9 7:53 PM, Charlotte Amalie, Weather by CustomWeather, © 2015

Note: Actual official high and low records may vary slightly from our data, if they occured in-between our weather recording intervals... More about our weather records


Charlotte Amalie weather history for previous 24 hours

Time TempWeatherWind HumidityBarometerVisibility
7:53 PM
Fri, Oct 9
85 °FClear.13 mph72%29.98 "Hg10 mi
6:53 PM84 °FClear.10 mph83%29.96 "Hg10 mi
5:53 PM85 °FSunny.13 mph75%29.95 "Hg10 mi
4:53 PM86 °FSunny.13 mph72%29.93 "Hg10 mi
3:53 PM88 °FSunny.13 mph63%29.93 "Hg10 mi
2:53 PM89 °FPassing clouds.18 mph61%29.93 "Hg10 mi
1:53 PM88 °FSunny.15 mph63%29.95 "Hg10 mi
12:53 PM88 °FSunny.14 mph63%29.98 "Hg10 mi
11:53 AM86 °FScattered clouds.12 mph72%30.01 "Hg10 mi
10:53 AM87 °FPassing clouds.10 mph67%30.02 "Hg10 mi
9:53 AM86 °FPassing clouds.10 mph67%30.04 "Hg10 mi
8:53 AM85 °FPassing clouds.8 mph70%30.03 "Hg10 mi
7:53 AM82 °FPassing clouds.8 mph77%30.02 "Hg10 mi
6:53 AM81 °FSunny.6 mph79%30.00 "Hg10 mi
5:53 AM80 °FClear.3 mph79%29.97 "Hg10 mi
4:53 AM82 °FClear.8 mph74%29.96 "Hg10 mi
3:53 AM82 °FPassing clouds.7 mph72%29.94 "Hg10 mi
2:53 AM79 °FPassing clouds.5 mph82%29.95 "Hg10 mi
1:53 AM80 °FPassing clouds.3 mph79%29.95 "Hg10 mi
12:53 AM82 °FPassing clouds.9 mph77%29.97 "Hg10 mi
11:53 PM
Thu, Oct 8
82 °FClear.13 mph74%29.98 "Hg10 mi
10:53 PM82 °FPassing clouds.15 mph77%29.99 "Hg10 mi
9:53 PM82 °FClear.15 mph77%30.00 "Hg10 mi
Weather by CustomWeather, © 2015

See weather overviewHow to use our weather pages